This demonstration page uses our WeatherBlox Daily Observations layout. Learn more.

Hourly Observations for September 25, 2020

Temp ( °F °C ) Dew Point ( °F °C ) Humidity (%) Winds ( mph kmh ) Pressure ( in mb ) Visibility ( mi km ) Precip ( " mm )
12:15 am 00:15 Clear 63 17.1 55 13 77 77 SE 8 13 29.75 1008 10 16.0934 0 0
12:35 am 00:35 Clear 62 16.6 55 12.7 78 78 SSE 3 6 29.74 1007 10 16.0934 0 0
12:55 am 00:55 Clear 63 17.4 55 13 76 76 SSE 6 9 29.75 1007 10 16.0934 0 0
1:15 am 01:15 Clear 63 17 55 12.7 76 76 SSE 5 7 29.73 1007 10 16.0934 0 0
1:35 am 01:35 Clear 63 17.3 55 12.5 74 74 S 5 7 29.73 1007 10 16.0934 0 0
1:55 am 01:55 Clear 61 16.1 54 12.1 77 77 S 7 11 29.73 1007 10 16.0934 0 0
2:15 am 02:15 Clear 63 17.3 54 12.2 72 72 SSW 7 11 29.75 1007 10 16.0934 0 0
2:35 am 02:35 Clear 63 17.1 54 12.2 73 73 SSW 6 9 29.74 1007 10 16.0934 0 0
2:55 am 02:55 Clear 63 17.2 54 12 72 72 S 6 9 29.74 1007 10 16.0934 0 0
3:15 am 03:15 Clear 63 17 53 11.7 71 71 SSW 6 9 29.73 1007 10 16.0934 0 0
3:35 am 03:35 Clear 62 16.7 53 11.5 72 72 SSW 6 9 29.72 1006 10 16.0934 0 0
3:55 am 03:55 Clear 62 16.5 52 11.2 71 71 SSW 7 11 29.72 1006 10 16.0934 0 0
4:15 am 04:15 Clear 63 17.4 51 10.8 65 65 SSW 7 11 29.73 1007 10 16.0934 0 0
4:35 am 04:35 Clear 63 17.1 51 10.7 66 66 SSW 6 9 29.72 1006 10 16.0934 0 0
4:55 am 04:55 Clear 63 17.3 51 10.3 64 64 SSW 7 11 29.73 1007 10 16.0934 0 0
5:15 am 05:15 Clear 63 17 51 10.3 65 65 SSW 7 11 29.72 1007 10 16.0934 0 0
5:35 am 05:35 Clear 61 16 50 9.9 67 67 SW 5 7 29.72 1006 10 16.0934 0 0
5:55 am 05:55 Clear 60 15.4 50 9.8 69 69 SSW 5 7 29.73 1007 10 16.0934 0 0
6:15 am 06:15 Clear 60 15.6 49 9.5 67 67 SSW 5 7 29.71 1006 10 16.0934 0 0
6:35 am 06:35 Clear 55 13 48 8.9 76 76 Calm 29.74 1007 10 16.0934 0 0
6:55 am 06:55 Clear 55 12.5 49 9.4 82 82 S 3 6 29.75 1007 10 16.0934 0 0
7:15 am 07:15 Clear 56 13.6 49 9.7 77 77 Calm 29.75 1007 10 16.0934 0 0
7:35 am 07:35 Sunny 56 13.4 49 9.3 76 76 Calm 29.74 1007 10 16.0934 0 0
7:55 am 07:55 Sunny 58 14.2 50 9.9 76 76 S 3 6 29.77 1008 10 16.0934 0 0
8:15 am 08:15 Sunny 58 14.3 51 10.3 77 77 SW 5 7 29.77 1008 10 16.0934 0 0
8:35 am 08:35 Sunny 59 14.9 51 10.7 76 76 WNW 9 15 29.76 1008 10 16.0934 0 0
8:55 am 08:55 Sunny 59 15 52 10.9 77 77 W 6 9 29.78 1008 7 11.26538 0 0
9:15 am 09:15 Sunny 60 15.3 52 11 76 76 W 3 6 29.79 1009 10 16.0934 0 0
9:35 am 09:35 Sunny 62 16.6 52 11.2 71 71 Calm 29.78 1008 10 16.0934 0 0
9:55 am 09:55 Sunny 64 17.9 53 11.9 68 68 Calm 29.77 1008 10 16.0934 0 0
10:15 am 10:15 Sunny 66 19 53 11.5 62 62 NW 3 6 29.76 1008 7 11.26538 0 0
10:35 am 10:35 Sunny 68 20 53 11.5 58 58 NNW 6 9 29.76 1008 7 11.26538 0 0
10:55 am 10:55 Sunny 71 21.9 48 8.8 43 43 N 9 15 29.74 1007 10 16.0934 0 0
11:15 am 11:15 Sunny 72 22.2 48 8.9 43 43 N 8 13 29.74 1007 10 16.0934 0 0
11:35 am 11:35 Sunny 73 23 50 9.9 44 44 NNE 9 15 29.73 1007 10 16.0934 0 0
11:55 am 11:55 Sunny 75 23.9 50 10 41 41 NNE 6 9 29.73 1007 10 16.0934 0 0
12:15 pm 12:15 Sunny 78 25.4 50 9.8 37 37 NE 8 13 29.7 1006 10 16.0934 0 0
12:35 pm 12:35 Sunny 79 26.3 50 10.1 36 36 NNE 9 15 29.69 1005 10 16.0934 0 0
12:55 pm 12:55 Sunny 81 27 51 10.4 35 35 N 6 9 29.69 1005 10 16.0934 0 0
1:15 pm 13:15 Sunny 81 27.4 51 10.3 34 34 N 7 11 29.69 1005 10 16.0934 0 0
1:35 pm 13:35 Sunny 82 27.9 51 10.8 34 34 NNE 7 11 29.68 1005 10 16.0934 0 0
1:55 pm 13:55 Sunny 83 28.4 51 10.8 33 33 NNE 5 7 29.67 1005 10 16.0934 0 0
2:15 pm 14:15 Sunny 84 28.8 51 10.6 32 32 ENE 7 11 29.66 1004 10 16.0934 0 0
2:35 pm 14:35 Sunny 85 29.5 52 11 32 32 E 7 11 29.65 1004 10 16.0934 0 0
2:55 pm 14:55 Sunny 85 29.4 51 10.7 31 31 NE 3 6 29.64 1004 10 16.0934 0 0
3:15 pm 15:15 Sunny 86 29.9 52 11.1 31 31 ENE 7 11 29.64 1004 10 16.0934 0 0
3:35 pm 15:35 Sunny 86 30.1 52 11.2 31 31 NE 5 7 29.63 1003 10 16.0934 0 0
3:55 pm 15:55 Sunny 86 30.2 52 11.1 31 31 ENE 6 9 29.62 1003 10 16.0934 0 0
4:15 pm 16:15 Sunny 87 30.4 53 11.4 31 31 ENE 6 9 29.63 1003 10 16.0934 0 0
4:35 pm 16:35 Sunny 86 30.2 52 11.1 31 31 NE 7 11 29.62 1003 10 16.0934 0 0
4:55 pm 16:55 Sunny 86 30.1 52 11.3 31 31 ENE 7 11 29.62 1003 10 16.0934 0 0
5:15 pm 17:15 Sunny 86 29.8 52 11.3 32 32 ENE 7 11 29.62 1003 10 16.0934 0 0
5:35 pm 17:35 Sunny 85 29.5 53 11.7 33 33 NE 6 9 29.62 1003 7 11.26538 0 0
5:55 pm 17:55 Sunny 84 29.1 54 12.1 35 35 ENE 6 9 29.64 1004 10 16.0934 0 0
6:15 pm 18:15 Sunny 83 28.2 55 13 39 39 ENE 3 6 29.63 1003 10 16.0934 0 0
6:35 pm 18:35 Sunny 80 26.9 57 14.1 45 45 NNE 5 7 29.64 1004 7 11.26538 0 0
6:55 pm 18:55 Sunny 78 25.3 57 14.1 50 50 NNE 7 11 29.66 1004 7 11.26538 0 0
7:15 pm 19:15 Sunny 76 24.3 57 14 53 53 NNE 7 11 29.67 1005 10 16.0934 0 0
7:35 pm 19:35 Clear 74 23.2 57 14 56 56 NNE 7 11 29.68 1005 10 16.0934 0 0
7:55 pm 19:55 Hazy 72 22 57 13.8 60 60 NNE 7 11 29.69 1005 3 4.82802 0 0
8:15 pm 20:15 Clear 70 21.1 57 13.7 63 63 NNE 7 11 29.7 1006 10 16.0934 0 0
8:35 pm 20:35 Clear 68 19.9 56 13.6 67 67 NNE 7 11 29.71 1006 10 16.0934 0 0
8:55 pm 20:55 Clear 66 19.1 56 13.5 70 70 NNE 7 11 29.72 1006 10 16.0934 0 0
9:15 pm 21:15 Clear 65 18.4 56 13.2 72 72 ENE 8 13 29.72 1006 10 16.0934 0 0
9:35 pm 21:35 Clear 64 18 55 12.7 71 71 ENE 7 11 29.72 1007 10 16.0934 0 0
9:55 pm 21:55 Clear 64 17.7 55 12.6 72 72 ENE 8 13 29.74 1007 10 16.0934 0 0
10:15 pm 22:15 Clear 64 17.6 55 12.5 72 72 ENE 7 11 29.73 1007 10 16.0934 0 0
10:35 pm 22:35 Clear 63 17.2 54 12.2 73 73 E 8 13 29.73 1007 10 16.0934 0 0
10:55 pm 22:55 Clear 67 19.2 55 12.5 65 65 E 9 15 29.72 1007 10 16.0934 0 0
11:15 pm 23:15 Clear 65 18.2 55 12.5 70 70 E 7 11 29.7 1006 10 16.0934 0 0
11:35 pm 23:35 Clear 63 17.2 55 12.5 74 74 Calm 29.7 1006 10 16.0934 0 0
11:55 pm 23:55 Clear 62 16.8 55 12.5 76 76 Calm 29.7 1006 10 16.0934 0 0

Powered by AerisWeather